• Contacto:

    Directo: 4535-5707
    poleposition@arnet.com.ar

  • Buscar Noticias

“Josito” Di Palma marca tendencia en los entrenamientos

josito

Josito Di Palma fue el más rápido en la prueba comunitaria que llevó a cabo el TC en el Autódromo de Termas de Río Hondo donde este fin de semana se pondrá en marcha la sexta fecha de la temporada.
El piloto de Torino registró un tiempo de 1:38:879, lo siguió Mauro Giallombardo (Ford) a solo 0.047/1000, Juan Bautista De Benedictis (Ford) a 0.158/1000.
Completaron los diez primeros: Juan Martin Trucco, Leonel Pernia, Diego Aventin, Juan Manuel Silva, José Maria López, Martin Ponte y Juan Marcos Angelini. El mejor Chevrolet fue Mariano Altuna en la 17° ubicación.

Pruebas comunitarias Turismo Carretera – Termas de Rio Hondo

1° 37 Di Palma, Josito 16 01:38.879
2° 1 Giallombardo, Mauro 13 01:38.926 0.047
3° 6 De Benedictis, Juan Bautista 17 01:39.037 0.158
4° 26 Trucco, Juan Martín 16 01:39.063 0.184
5° 24 Pernía, Leonel 15 01:39.230 0.351
6° 14 Aventin, Diego 16 01:39.252 0.373
7° 111 Silva, Juan Manuel 14 01:39.307 0.428
8° 23 López, José María 16 01:39.408 0.529
9° 11 Ponte, Martín 16 01:39.410 0.531
10° 17 Angelini, Juan Marcos 16 01:39.426 0.547
11° 5 Ponce de León, Gabriel 15 01:39.429 0.550
12° 22 Martínez, Omar 16 01:39.460 0.581
13° 33 Oubiña, Adrián 15 01:39.481 0.602
14° 10 Castellano, Jonatan 17 01:39.694 0.815
15° 21 Gianini, Juan Pablo 16 01:39.716 0.837
16° 18 Moriatis, Emanuel 18 01:39.739 0.860
17° 20 Altuna, Mariano 15 01:39.869 0.990
18° 27 Jalaf, Matías 16 01:39.924 1.045
19° 31 Okulovich, Carlos 15 01:40.075 1.196
20° 9 Fontana, Norberto 14 01:40.172 1.293
21° 85 Risatti, Ricardo 16 01:40.352 1.473
22° 15 Werner, Mariano 13 01:40.399 1.520
23° 3 Ortelli, Guillermo 15 01:40.507 1.628
24° 2 Rossi, Matías 15 01:40.568 1.689
25° 12 Spataro, Emiliano 11 01:40.820 1.941
26° 4 Ledesma, Christian 14 01:40.924 2.045
27| 13 Alaux, Sergio 8 01:40.984 2.105
28° 36 Nolesi, Mathias 15 01:41.036 2.157
29° 30 Juan, Maximiliano 15 01:41.126 2.247
30° 182 Kohler, Claudio 15 01:41.166 2.287
31° 83 Ardusso, Facundo 16 01:41.306 2.427
32° 19 Bonelli, Próspero 16 01:41.501 2.622
33° 35 Sotro, Leonel 15 01:41.518 2.639
34° 41 Mazzacane, Gastón 16 01:41.557 2.678
35° 28 Ugalde, Lionel 16 01:41.600 2.721
36° 71 Smith, Brian 16 01:41.769 2.890
37° 98 Bonelli, Nicolás 16 01:42.032 3.153
38° 75 Pacho, Ariel 16 01:42.072 3.193
39° 39 Verna, Rafael 15 01:42.107 3.228
40° 101 Guerrieri, Esteban 16 01:42.200 3.321
41° 29 Basso, Martín 16 01:42.322 3.443
42° 61 Ventricelli , Luciano 15 01:42.388 3.509
43° 8 Canapino, Agustín 5 01:42.579 3.700
44° 45 De Carlo, Diego 16 01:43.049 4.170
45° 48 Solís, Gustavo 15 01:43.193 4.314
46° 40 Campanera, Laureano 17 01:43.221 4.342
47° 7 Girolami, Néstor 15 01:43.647 4.768
48° 49 Gil Bicella, Facundo 11 01:45.683 6.804
49° 25 Savino, José 12 01:48.975 10.096

Anuncios

Responder

Introduce tus datos o haz clic en un icono para iniciar sesión:

Logo de WordPress.com

Estás comentando usando tu cuenta de WordPress.com. Cerrar sesión / Cambiar )

Imagen de Twitter

Estás comentando usando tu cuenta de Twitter. Cerrar sesión / Cambiar )

Foto de Facebook

Estás comentando usando tu cuenta de Facebook. Cerrar sesión / Cambiar )

Google+ photo

Estás comentando usando tu cuenta de Google+. Cerrar sesión / Cambiar )

Conectando a %s

A %d blogueros les gusta esto: